TimeCDT,TemperatureF,Dew PointF,Humidity,Sea Level PressureIn,VisibilityMPH,Wind Direction,Wind SpeedMPH,Gust SpeedMPH,PrecipitationIn,Events,Conditions,WindDirDegrees,DateUTC
12:55 AM,-0.4,-2.2,92,30.21,10.0,Calm,Calm,-,N/A,,Clear,0,2013-03-13 05:55:00
1:15 AM,-0.4,-2.2,92,30.20,10.0,Calm,Calm,-,N/A,,Clear,0,2013-03-13 06:15:00
1:35 AM,-0.4,-2.2,92,30.19,10.0,Calm,Calm,-,N/A,,Mostly Cloudy,0,2013-03-13 06:35:00
1:55 AM,1.4,-0.4,92,30.18,10.0,Calm,Calm,-,N/A,,Overcast,0,2013-03-13 06:55:00
2:15 AM,-0.4,-2.2,92,30.18,10.0,SE,3.5,-,N/A,,Overcast,140,2013-03-13 07:15:00
2:35 AM,3.2,-0.4,85,30.17,10.0,SE,4.6,-,N/A,,Overcast,140,2013-03-13 07:35:00
2:55 AM,5.0,-0.4,78,30.17,10.0,SSE,4.6,-,N/A,,Overcast,160,2013-03-13 07:55:00
3:15 AM,5.0,1.4,85,30.17,10.0,South,5.8,-,N/A,,Overcast,190,2013-03-13 08:15:00
3:55 AM,6.8,5.0,92,30.16,10.0,South,10.4,-,N/A,,Mostly Cloudy,170,2013-03-13 08:55:00
4:15 AM,6.8,3.2,85,30.16,10.0,South,9.2,-,N/A,,Clear,180,2013-03-13 09:15:00
4:35 AM,6.8,5.0,92,30.15,10.0,SSE,8.1,-,N/A,,Mostly Cloudy,150,2013-03-13 09:35:00
4:55 AM,6.8,3.2,85,30.14,10.0,SSE,10.4,-,N/A,,Overcast,160,2013-03-13 09:55:00
5:15 AM,6.8,5.0,92,30.13,-9999.0,SSE,9.2,-,N/A,,Unknown,160,2013-03-13 10:15:00
5:35 AM,6.8,5.0,92,30.12,-9999.0,South,4.6,-,N/A,,Overcast,170,2013-03-13 10:35:00
5:55 AM,8.6,6.8,92,30.12,-9999.0,South,6.9,-,N/A,,Overcast,170,2013-03-13 10:55:00
6:15 AM,10.4,6.8,85,30.11,10.0,South,5.8,-,N/A,,Overcast,180,2013-03-13 11:15:00
6:35 AM,12.2,8.6,85,30.10,10.0,South,6.9,-,N/A,,Overcast,170,2013-03-13 11:35:00
6:55 AM,14.0,8.6,79,30.10,10.0,SSE,8.1,-,N/A,,Overcast,160,2013-03-13 11:55:00
7:35 AM,14.0,8.6,79,30.08,10.0,SSE,11.5,-,N/A,,Overcast,160,2013-03-13 12:35:00
7:55 AM,14.0,10.4,86,30.07,10.0,SSE,10.4,-,N/A,,Overcast,150,2013-03-13 12:55:00
8:15 AM,14.0,10.4,86,30.07,10.0,SSE,8.1,-,N/A,,Overcast,160,2013-03-13 13:15:00
8:35 AM,14.0,10.4,86,30.06,10.0,SSE,11.5,-,N/A,,Overcast,150,2013-03-13 13:35:00
8:55 AM,15.8,10.4,79,30.06,10.0,SSE,9.2,-,N/A,,Mostly Cloudy,160,2013-03-13 13:55:00
9:15 AM,15.8,10.4,79,30.05,10.0,SSE,12.7,-,N/A,,Mostly Cloudy,160,2013-03-13 14:15:00
9:35 AM,15.8,12.2,86,30.06,10.0,South,13.8,-,N/A,,Partly Cloudy,170,2013-03-13 14:35:00
9:55 AM,17.6,12.2,79,30.05,10.0,South,16.1,-,N/A,,Clear,170,2013-03-13 14:55:00
10:15 AM,17.6,14.0,86,30.04,10.0,South,13.8,-,N/A,,Clear,180,2013-03-13 15:15:00
10:35 AM,19.4,14.0,80,30.03,10.0,South,12.7,-,N/A,,Clear,170,2013-03-13 15:35:00
10:55 AM,19.4,15.8,86,30.03,10.0,South,11.5,-,N/A,,Clear,170,2013-03-13 15:55:00
11:15 AM,21.2,15.8,80,30.03,10.0,SSE,11.5,-,N/A,,Clear,160,2013-03-13 16:15:00
11:35 AM,23.0,17.6,80,30.02,10.0,South,12.7,-,N/A,,Clear,170,2013-03-13 16:35:00
11:55 AM,23.0,17.6,80,30.02,10.0,South,12.7,-,N/A,,Clear,170,2013-03-13 16:55:00
12:15 PM,24.8,19.4,80,30.00,10.0,South,15.0,-,N/A,,Clear,180,2013-03-13 17:15:00
12:35 PM,26.6,19.4,74,29.99,10.0,South,12.7,-,N/A,,Clear,170,2013-03-13 17:35:00
12:55 PM,26.6,21.2,80,29.99,10.0,South,16.1,-,N/A,,Clear,180,2013-03-13 17:55:00
1:15 PM,28.4,23.0,80,29.98,10.0,South,13.8,-,N/A,,Clear,180,2013-03-13 18:15:00
1:35 PM,30.2,23.0,75,29.98,10.0,South,11.5,-,N/A,,Clear,180,2013-03-13 18:35:00
1:55 PM,32.0,24.8,75,29.97,10.0,South,11.5,-,N/A,,Clear,180,2013-03-13 18:55:00
2:15 PM,32.0,24.8,75,29.96,10.0,South,9.2,-,N/A,,Clear,180,2013-03-13 19:15:00
2:35 PM,32.0,24.8,75,29.96,10.0,South,6.9,-,N/A,,Clear,180,2013-03-13 19:35:00
2:55 PM,33.8,26.6,75,29.94,-9999.0,SSE,4.6,-,N/A,,Partly Cloudy,160,2013-03-13 19:55:00
3:15 PM,35.6,26.6,70,29.94,-9999.0,South,8.1,-,N/A,,Mostly Cloudy,180,2013-03-13 20:15:00
3:35 PM,35.6,26.6,70,29.93,10.0,South,8.1,-,N/A,,Overcast,180,2013-03-13 20:35:00
3:55 PM,35.6,26.6,70,29.92,10.0,SSE,8.1,-,N/A,,Mostly Cloudy,160,2013-03-13 20:55:00
4:15 PM,37.4,28.4,70,29.92,-9999.0,SSW,11.5,-,N/A,,Mostly Cloudy,200,2013-03-13 21:15:00
4:35 PM,37.4,28.4,70,29.91,10.0,SSW,10.4,-,N/A,,Mostly Cloudy,200,2013-03-13 21:35:00
4:55 PM,37.4,30.2,75,29.91,10.0,South,8.1,-,N/A,,Overcast,190,2013-03-13 21:55:00
5:15 PM,37.4,30.2,75,29.90,10.0,SSW,9.2,-,N/A,,Mostly Cloudy,200,2013-03-13 22:15:00
5:35 PM,37.4,32.0,81,29.89,10.0,SSW,9.2,-,N/A,,Partly Cloudy,210,2013-03-13 22:35:00
5:55 PM,37.4,32.0,81,29.89,10.0,Calm,Calm,-,N/A,,Clear,0,2013-03-13 22:55:00
6:15 PM,39.2,32.0,75,29.89,10.0,SW,6.9,-,N/A,,Clear,220,2013-03-13 23:15:00
6:35 PM,39.2,32.0,75,29.89,10.0,WSW,12.7,-,N/A,,Clear,240,2013-03-13 23:35:00
6:55 PM,39.2,32.0,75,29.89,10.0,West,11.5,-,N/A,,Clear,260,2013-03-13 23:55:00
7:15 PM,39.2,32.0,75,29.89,10.0,West,11.5,-,N/A,,Clear,260,2013-03-14 00:15:00
7:35 PM,37.4,32.0,81,29.89,10.0,West,9.2,-,N/A,,Clear,280,2013-03-14 00:35:00
7:55 PM,37.4,32.0,81,29.89,10.0,WNW,10.4,-,N/A,,Clear,290,2013-03-14 00:55:00
8:15 PM,37.4,32.0,81,29.89,10.0,West,12.7,-,N/A,,Clear,280,2013-03-14 01:15:00
8:35 PM,37.4,32.0,81,29.89,10.0,West,11.5,-,N/A,,Clear,280,2013-03-14 01:35:00
8:55 PM,37.4,32.0,81,29.88,10.0,West,11.5,-,N/A,,Clear,280,2013-03-14 01:55:00
9:15 PM,37.4,32.0,81,29.89,10.0,WNW,12.7,-,N/A,,Clear,300,2013-03-14 02:15:00
9:35 PM,37.4,33.8,87,29.90,10.0,WNW,13.8,-,N/A,,Clear,290,2013-03-14 02:35:00
9:55 PM,37.4,32.0,81,29.91,10.0,WNW,15.0,19.6,N/A,,Clear,300,2013-03-14 02:55:00
10:15 PM,37.4,32.0,81,29.91,10.0,WNW,13.8,-,N/A,,Clear,300,2013-03-14 03:15:00
10:35 PM,35.6,32.0,87,29.91,10.0,WNW,13.8,-,N/A,,Clear,300,2013-03-14 03:35:00
10:55 PM,33.8,32.0,93,29.92,10.0,WNW,13.8,-,N/A,,Clear,300,2013-03-14 03:55:00
11:15 PM,32.0,32.0,100,29.92,10.0,WNW,16.1,-,N/A,,Clear,300,2013-03-14 04:15:00
11:35 PM,33.8,32.0,93,29.93,10.0,WNW,18.4,-,N/A,,Clear,300,2013-03-14 04:35:00
11:55 PM,33.8,32.0,93,29.93,10.0,WNW,15.0,-,N/A,,Clear,300,2013-03-14 04:55:00